Temperature
-7 -7 -8 -9 -10 -11 -12 -12 -12 -12 -12 -12 -11 -11 -11 -11 -11 -12 -11 -11 -11 -11 -10 -10 -10 -9 -9 -9 -8 -8 -8 -8 -7 -6 -5 -4 -3 -2 -0 1 2 4 6
-7 -7 -8 -9 -10 -11 -12 -12 -12 -12 -12 -11 -11 -11 -11 -11 -11 -11 -11 -11 -11 -10 -10 -10 -10 -9 -9 -9 -9 -8 -8 -8 -8 -7 -5 -4 -3 -2 -1 1 2 4 5
-6 -7 -8 -9 -10 -11 -12 -12 -12 -12 -12 -11 -11 -11 -10 -11 -11 -10 -10 -10 -10 -10 -10 -10 -10 -10 -10 -9 -9 -9 -9 -8 -8 -7 -6 -4 -3 -2 -1 0 2 3 5
-6 -7 -8 -9 -10 -11 -11 -12 -12 -12 -12 -12 -11 -11 -10 -10 -11 -11 -10 -10 -10 -10 -10 -10 -10 -10 -10 -10 -10 -10 -9 -9 -8 -7 -6 -5 -4 -2 -2 -0 2 3 4
-6 -7 -8 -9 -10 -10 -11 -12 -12 -12 -12 -12 -12 -11 -10 -10 -10 -11 -11 -11 -11 -10 -10 -10 -10 -10 -10 -10 -10 -10 -10 -9 -9 -8 -7 -6 -4 -3 -2 -1 1 2 4
-6 -7 -8 -9 -10 -10 -11 -12 -12 -12 -12 -12 -12 -12 -11 -11 -11 -11 -12 -11 -11 -11 -11 -11 -11 -11 -11 -11 -11 -11 -10 -10 -10 -9 -9 -7 -6 -5 -3 -2 -1 2 3
-6 -7 -8 -9 -9 -10 -11 -12 -12 -12 -13 -13 -12 -12 -12 -11 -11 -12 -12 -12 -12 -12 -12 -12 -12 -12 -11 -11 -11 -10 -10 -10 -10 -10 -9 -8 -7 -6 -4 -3 -2 0 2
-6 -7 -8 -9 -9 -10 -10 -11 -12 -12 -13 -13 -13 -13 -12 -12 -11 -12 -12 -12 -12 -12 -13 -13 -13 -12 -12 -11 -11 -11 -11 -10 -10 -10 -10 -9 -8 -6 -5 -4 -2 -0 1
-6 -7 -8 -9 -9 -10 -10 -11 -12 -12 -12 -13 -13 -13 -13 -12 -12 -12 -12 -12 -13 -13 -13 -13 -13 -13 -12 -12 -12 -12 -11 -10 -10 -10 -9 -9 -7 -6 -5 -4 -2 -1 1
-6 -7 -8 -9 -9 -9 -10 -10 -11 -12 -12 -13 -13 -13 -13 -13 -12 -12 -12 -12 -13 -13 -13 -14 -13 -13 -13 -13 -13 -13 -12 -11 -10 -9 -8 -8 -7 -6 -5 -4 -3 -2 -0
-7 -7 -8 -8 -9 -9 -10 -10 -10 -11 -11 -12 -12 -12 -13 -13 -12 -12 -12 -12 -13 -13 -14 -14 -14 -13 -13 -13 -13 -13 -13 -12 -10 -10 -9 -8 -7 -6 -5 -4 -3 -2 -1
-6 -7 -8 -8 -9 -9 -10 -10 -10 -10 -11 -11 -12 -12 -12 -12 -12 -12 -12 -12 -13 -13 -14 -14 -14 -14 -14 -14 -14 -13 -12 -11 -11 -10 -9 -8 -7 -6 -5 -4 -3 -2 -1
-6 -7 -7 -8 -8 -9 -9 -10 -10 -10 -10 -11 -11 -11 -11 -12 -12 -12 -12 -13 -13 -13 -14 -14 -14 -14 -14 -14 -14 -14 -12 -12 -11 -11 -11 -10 -9 -8 -6 -4 -3 -2 -1
-6 -6 -7 -7 -7 -8 -9 -9 -10 -10 -11 -11 -11 -11 -11 -11 -11 -11 -11 -12 -13 -13 -14 -14 -14 -14 -14 -14 -14 -13 -13 -13 -13 -12 -11 -10 -9 -8 -6 -5 -3 -2 -2
-6 -6 -6 -7 -7 -7 -7 -8 -9 -10 -11 -11 -11 -11 -11 -10 -10 -11 -11 -12 -12 -13 -13 -14 -14 -14 -14 -14 -14 -14 -14 -13 -12 -12 -11 -11 -10 -9 -8 -6 -4 -3 -2
-6 -6 -6 -6 -6 -7 -7 -7 -8 -9 -10 -10 -11 -11 -10 -10 -10 -11 -11 -12 -12 -13 -13 -14 -14 -14 -15 -15 -15 -14 -14 -14 -13 -13 -12 -11 -11 -10 -9 -7 -6 -4 -3
-5 -6 -6 -6 -6 -6 -6 -7 -6 -7 -8 -9 -10 -10 -11 -11 -11 -11 -11 -11 -12 -13 -13 -13 -14 -14 -14 -15 -15 -15 -15 -14 -14 -13 -12 -12 -11 -11 -10 -9 -7 -6 -4
-5 -6 -6 -6 -6 -6 -6 -6 -7 -7 -7 -8 -9 -10 -11 -11 -11 -11 -11 -11 -11 -12 -12 -13 -13 -14 -14 -14 -14 -14 -14 -14 -14 -13 -13 -12 -12 -11 -11 -10 -9 -8 -6
-5 -5 -5 -5 -5 -5 -6 -6 -6 -7 -8 -8 -9 -10 -11 -11 -11 -11 -11 -11 -11 -12 -12 -12 -13 -13 -14 -14 -14 -14 -14 -14 -14 -14 -13 -13 -12 -12 -12 -11 -10 -9 -8
-5 -5 -5 -5 -5 -5 -5 -6 -6 -6 -7 -8 -9 -10 -12 -11 -11 -11 -11 -11 -11 -11 -11 -12 -12 -12 -13 -13 -14 -14 -14 -14 -14 -14 -14 -13 -13 -12 -12 -12 -11 -10 -10
-5 -5 -5 -5 -5 -5 -5 -6 -6 -6 -7 -7 -8 -9 -12 -11 -11 -11 -11 -11 -11 -11 -11 -11 -11 -12 -12 -13 -13 -13 -14 -14 -14 -14 -14 -14 -13 -13 -12 -12 -12 -12 -11
-5 -5 -5 -5 -5 -5 -6 -6 -6 -6 -7 -7 -7 -8 -9 -10 -11 -11 -11 -11 -11 -11 -10 -10 -10 -11 -11 -12 -12 -13 -13 -14 -14 -14 -14 -14 -14 -13 -13 -13 -12 -12 -12
-4 -5 -5 -5 -5 -5 -6 -6 -6 -6 -7 -7 -7 -8 -9 -10 -11 -11 -11 -11 -10 -10 -10 -10 -10 -10 -11 -11 -11 -12 -13 -13 -13 -14 -14 -14 -14 -14 -13 -13 -13 -12 -12
-4 -5 -5 -5 -5 -6 -6 -6 -6 -6 -7 -7 -7 -8 -9 -10 -10 -11 -11 -11 -10 -10 -10 -10 -10 -10 -10 -10 -11 -11 -12 -13 -13 -13 -14 -14 -14 -14 -14 -13 -13 -13 -13
-4 -5 -5 -5 -5 -6 -6 -6 -6 -7 -7 -7 -8 -8 -9 -9 -10 -11 -11 -11 -10 -10 -10 -9 -9 -9 -9 -10 -10 -11 -11 -12 -13 -13 -13 -13 -13 -13 -13 -13 -13 -13 -13
-4 -5 -5 -5 -5 -6 -6 -6 -7 -7 -7 -8 -8 -8 -8 -9 -10 -10 -11 -11 -10 -10 -10 -9 -9 -9 -9 -9 -10 -10 -11 -12 -12 -13 -13 -13 -13 -13 -13 -13 -13 -13 -13
Wind_Speed
8 8 9 9 10 11 9 11 13 14 17 16 18 19 20 19 16 12 10 10 9 9 9 9 10 10 8 7 7 7 7 8 11 10 9 10 11 12 11 9 8 6 5
7 8 9 9 9 10 11 12 15 14 17 17 17 18 19 18 15 12 11 10 9 10 10 9 10 9 9 8 7 8 7 7 8 12 10 8 9 10 10 9 7 5 4
7 8 9 9 10 11 11 11 14 13 14 17 16 17 18 16 13 13 13 12 11 11 11 11 11 11 11 9 8 8 8 8 7 9 9 8 7 7 7 7 6 4 4
7 8 8 9 10 10 10 11 12 12 12 14 15 16 17 15 9 10 12 13 14 14 13 13 12 12 12 12 10 10 10 9 9 8 8 7 6 6 4 4 3 2 2
7 8 8 9 10 10 10 10 11 11 13 13 14 15 16 14 10 9 10 12 12 13 14 14 14 20 22 17 14 12 11 9 9 8 8 7 6 6 5 4 4 3 2
7 7 8 9 10 10 10 10 11 11 12 12 13 14 16 15 21 23 15 10 11 12 14 14 14 16 21 22 24 21 18 14 11 8 7 9 9 8 7 7 5 2 1
7 7 8 9 10 10 11 11 11 11 11 12 12 13 14 18 25 23 23 11 10 11 12 13 15 18 20 9 17 21 18 21 18 11 8 9 9 9 10 8 7 4 3
7 7 8 8 9 10 9 10 10 8 9 8 10 12 13 18 25 21 21 11 8 10 11 12 13 14 18 15 13 13 11 11 15 10 8 8 9 10 8 7 7 7 6
7 7 8 8 8 9 9 9 8 8 8 8 9 10 12 16 24 21 16 7 8 10 11 14 16 12 24 25 16 15 14 11 16 19 17 15 16 16 12 7 6 3 2
7 7 8 7 8 9 9 8 6 8 8 10 11 10 11 12 21 23 16 6 7 9 9 12 20 22 25 26 15 15 16 13 13 14 14 14 11 12 15 8 5 4 3
7 7 7 7 8 8 7 7 8 9 10 10 10 11 10 12 17 22 19 5 7 9 10 10 13 26 25 25 21 15 19 16 12 11 10 9 9 8 8 7 5 4 3
6 7 7 8 8 8 8 8 8 9 9 9 9 10 8 10 14 17 19 15 11 7 8 9 13 25 24 24 20 22 24 19 11 11 11 11 11 11 11 10 8 6 6
7 7 8 8 8 7 7 8 8 8 8 9 8 9 9 9 11 18 16 15 16 7 6 15 19 22 20 17 22 25 20 13 12 12 12 11 10 11 10 9 8 7 5
7 8 7 7 8 8 8 7 7 8 9 9 8 9 9 9 9 8 5 6 10 8 5 11 16 18 16 18 18 15 13 13 12 11 11 11 10 10 10 9 8 8 4
7 7 7 7 7 8 8 7 9 8 11 12 9 9 10 10 13 19 12 7 6 6 5 5 6 8 10 10 11 11 11 12 12 12 12 12 12 12 11 10 8 7 5
6 6 6 6 7 7 8 9 13 13 17 17 17 17 14 16 20 20 18 16 16 15 7 4 6 7 8 9 10 10 10 11 11 12 11 11 11 12 11 10 9 8 7
5 6 6 7 7 8 8 9 11 13 16 16 19 21 21 21 21 20 19 18 15 13 5 4 4 5 5 6 6 7 8 9 9 10 10 11 11 11 11 11 11 9 8
5 7 7 5 5 6 6 7 8 10 11 10 14 20 21 21 21 20 20 15 9 8 3 4 4 4 4 4 5 5 6 8 8 9 9 10 10 11 11 12 11 11 9
5 4 5 4 4 5 6 6 7 9 9 10 9 12 18 18 19 19 18 8 9 8 6 5 4 4 3 3 4 4 5 6 7 7 8 9 10 9 10 11 11 15 12
4 7 7 4 4 5 5 5 6 8 9 9 9 10 11 11 9 12 11 9 9 9 8 6 5 4 3 3 3 3 4 5 6 6 7 8 8 9 10 11 11 10 10
3 4 6 5 4 5 5 5 5 6 7 8 8 12 17 10 10 11 11 10 10 10 10 8 6 4 3 3 2 2 3 3 4 5 6 7 7 8 8 9 10 10 10
3 3 3 3 4 4 4 4 5 5 7 8 8 10 16 9 9 9 10 11 11 10 10 9 7 5 4 4 4 3 2 2 2 3 4 5 6 7 7 8 9 10 10
4 3 3 3 3 5 5 5 5 5 6 7 7 8 9 9 10 10 11 11 11 11 12 11 8 5 5 7 7 5 4 3 1 0 2 4 5 6 6 7 9 10 11
5 4 4 3 3 3 4 5 5 5 6 6 6 7 8 8 9 11 11 11 11 13 14 14 11 9 8 6 8 10 9 7 5 3 2 3 4 4 5 6 7 9 9
6 5 4 3 3 3 4 4 4 5 6 7 7 8 9 9 10 11 11 10 12 13 15 17 15 13 11 7 9 11 12 11 9 7 6 4 3 4 4 5 6 7 8
6 6 5 4 3 3 3 4 4 5 5 6 6 7 8 9 10 10 11 11 13 12 14 16 18 19 15 9 9 13 15 15 13 12 10 6 4 3 4 4 6 6 7
Wind_Direction
314 318 324 323 324 325 322 320 321 322 324 325 327 330 332 333 333 329 323 315 309 309 311 310 309 307 309 304 301 298 294 289 286 290 285 289 290 293 296 295 289 283 294
313 323 325 325 325 325 323 322 324 325 328 330 332 336 342 345 349 351 345 342 337 335 335 333 332 337 333 325 323 320 311 300 294 295 295 292 288 289 287 286 285 284 278
319 327 327 327 327 325 324 323 327 328 329 334 338 341 344 347 0 10 10 8 3 358 354 352 348 347 347 343 340 338 330 325 312 301 298 294 292 294 290 284 277 270 276
329 329 329 327 325 323 324 326 329 330 333 336 338 340 342 343 359 20 19 17 13 10 6 1 355 357 358 351 353 353 343 336 333 324 314 312 310 307 301 300 303 274 284
330 331 329 325 324 325 328 328 330 335 339 336 338 341 343 344 358 35 25 14 9 6 3 359 355 1 5 5 1 1 353 346 347 342 340 339 338 346 343 326 307 291 285
329 326 326 329 329 330 331 333 334 335 335 336 337 339 343 345 3 26 29 13 6 4 0 356 352 353 0 6 3 4 3 357 357 354 347 344 341 339 335 332 320 325 349
325 324 326 327 329 330 334 336 334 330 330 333 332 336 339 339 1 24 25 17 3 360 356 354 355 352 355 1 360 1 359 360 360 357 342 338 332 335 334 332 333 335 326
323 322 322 324 325 325 329 331 327 322 326 325 324 331 336 340 353 16 25 15 360 354 350 349 348 346 347 10 0 352 352 353 352 351 343 338 338 334 333 320 308 306 289
320 318 316 317 319 322 326 324 318 319 319 320 323 327 332 334 343 2 25 6 5 351 350 354 352 350 356 9 6 354 353 354 354 355 359 359 360 356 359 352 339 316 301
309 307 307 310 315 314 314 314 312 318 320 325 327 326 323 322 334 347 13 14 6 358 352 352 353 4 4 8 9 358 357 356 347 345 349 352 351 352 5 6 343 325 321
301 303 306 310 310 304 311 309 312 318 321 317 314 315 313 321 332 336 349 12 11 1 355 352 351 4 7 7 10 5 2 1 347 344 344 347 349 350 349 344 328 300 290
302 304 306 308 310 319 315 309 310 311 313 310 307 311 315 317 326 328 340 350 3 7 352 345 354 5 8 7 9 8 7 4 355 354 356 357 355 351 343 333 320 296 263
308 306 306 308 307 310 308 306 311 309 310 310 312 320 322 320 320 325 332 341 350 1 351 355 1 5 7 5 6 9 8 2 0 358 357 353 347 338 338 338 335 325 293
304 306 307 308 310 314 317 316 315 314 315 317 323 323 318 315 312 311 307 321 338 345 355 356 1 3 8 7 7 6 4 3 3 356 352 347 346 350 356 355 351 348 343
300 304 311 314 309 314 320 315 317 315 324 338 335 327 324 320 329 344 350 342 337 338 6 2 357 357 2 4 4 5 3 3 2 357 357 355 357 359 0 359 358 0 7
300 310 313 312 317 323 321 323 329 336 338 343 344 344 338 342 350 355 354 354 351 353 7 353 349 352 357 359 0 360 -0 2 359 357 359 359 359 0 1 2 8 11 10
280 299 306 314 320 324 328 331 331 335 341 346 349 348 351 358 1 0 2 1 356 358 3 331 327 332 337 345 349 352 353 351 352 356 359 359 0 3 7 9 11 12 11
276 296 309 303 309 315 320 326 330 332 334 337 342 345 351 358 0 1 4 1 350 350 324 310 308 312 321 331 341 345 346 350 355 357 358 359 2 6 10 12 13 17 16
274 284 291 298 309 312 316 323 330 332 332 333 334 339 347 355 357 359 2 354 338 333 323 309 297 296 303 317 329 338 343 348 353 355 359 359 1 6 12 13 15 21 27
266 297 314 321 322 320 318 324 334 336 336 337 337 333 338 353 352 351 350 345 343 336 327 312 298 284 282 293 312 331 344 351 355 358 357 359 360 6 11 14 17 21 26
249 286 313 323 313 308 308 321 328 331 333 334 332 333 351 358 347 343 343 343 341 336 332 322 303 281 264 252 260 301 331 344 352 355 357 359 2 7 9 15 21 26 31
227 249 274 291 298 304 314 324 322 322 325 328 329 336 350 352 342 340 339 337 334 331 327 322 308 281 249 229 220 226 262 315 345 356 359 1 5 9 12 19 25 31 36
207 233 260 281 292 314 331 320 317 320 323 323 327 338 344 343 341 338 336 334 332 330 329 326 316 297 261 229 215 204 208 223 223 116 20 16 15 14 17 22 25 32 41
196 214 233 259 281 296 307 312 317 323 325 322 327 335 337 335 333 333 334 331 330 330 330 329 322 308 289 243 213 210 211 210 195 168 121 66 39 27 27 30 33 35 38
192 204 215 228 255 283 299 309 316 322 327 329 333 334 333 332 331 331 331 330 329 329 328 329 328 323 310 271 216 205 207 205 194 175 149 113 82 57 50 44 45 47 48
191 198 204 212 230 253 275 294 307 317 320 323 326 323 324 326 326 327 328 330 332 329 328 329 327 327 320 296 231 210 205 202 195 179 159 137 116 96 80 66 63 61 60
Height
1541 1535 1529 1523 1517 1511 1505 1498 1492 1485 1477 1469 1461 1452 1443 1434 1426 1419 1415 1411 1408 1406 1404 1402 1400 1397 1394 1391 1387 1384 1381 1379 1374 1369 1367 1365 1364 1363 1364 1365 1367 1372 1378
1539 1534 1528 1522 1516 1509 1503 1497 1491 1484 1477 1470 1462 1454 1446 1438 1431 1424 1419 1414 1411 1407 1405 1403 1400 1397 1393 1389 1385 1381 1377 1374 1371 1366 1363 1361 1360 1360 1360 1362 1364 1368 1373
1538 1532 1527 1521 1514 1508 1502 1496 1490 1484 1477 1471 1464 1456 1449 1442 1436 1430 1424 1419 1415 1411 1408 1404 1401 1397 1392 1388 1383 1379 1375 1371 1367 1364 1360 1357 1356 1356 1357 1358 1360 1364 1369
1537 1531 1525 1519 1513 1507 1502 1496 1490 1483 1477 1471 1465 1459 1452 1446 1440 1434 1429 1424 1419 1415 1410 1406 1402 1398 1393 1388 1383 1378 1373 1368 1364 1361 1357 1355 1353 1354 1354 1355 1357 1361 1365
1536 1530 1525 1519 1513 1507 1501 1495 1490 1484 1478 1472 1466 1460 1454 1448 1443 1437 1431 1426 1421 1416 1412 1407 1403 1399 1395 1389 1384 1378 1372 1368 1363 1359 1355 1353 1352 1352 1352 1353 1355 1357 1361
1535 1529 1524 1518 1512 1507 1501 1495 1489 1484 1478 1472 1467 1461 1455 1449 1445 1439 1433 1428 1423 1418 1413 1408 1403 1399 1394 1388 1383 1377 1372 1368 1363 1359 1355 1353 1351 1351 1351 1352 1353 1355 1359
1534 1529 1523 1518 1512 1506 1501 1495 1489 1484 1478 1473 1467 1462 1456 1451 1446 1441 1435 1429 1424 1419 1414 1409 1404 1399 1394 1387 1382 1376 1371 1366 1363 1360 1356 1353 1351 1350 1350 1350 1351 1353 1357
1533 1528 1523 1517 1512 1506 1501 1495 1489 1484 1478 1473 1468 1463 1457 1452 1447 1442 1436 1431 1426 1420 1415 1410 1405 1400 1395 1389 1381 1376 1371 1366 1362 1358 1355 1352 1350 1349 1349 1349 1350 1351 1355
1532 1527 1522 1517 1512 1506 1501 1495 1489 1484 1478 1473 1468 1463 1458 1453 1448 1443 1437 1432 1427 1422 1417 1412 1407 1401 1396 1390 1382 1376 1371 1366 1362 1358 1354 1351 1349 1348 1347 1348 1349 1352 1354
1530 1526 1521 1516 1512 1507 1501 1495 1490 1484 1479 1473 1468 1463 1458 1453 1448 1444 1439 1433 1428 1423 1418 1413 1408 1403 1397 1391 1384 1377 1372 1367 1361 1357 1353 1350 1347 1346 1346 1347 1348 1351 1353
1529 1525 1521 1516 1511 1506 1501 1496 1490 1485 1479 1474 1468 1462 1458 1453 1448 1443 1440 1434 1429 1424 1419 1414 1409 1405 1398 1392 1386 1380 1376 1369 1363 1358 1353 1349 1346 1345 1345 1345 1347 1350 1353
1528 1524 1520 1515 1511 1506 1501 1496 1490 1484 1478 1472 1466 1461 1457 1452 1447 1442 1439 1435 1431 1426 1421 1416 1412 1406 1400 1393 1388 1383 1376 1371 1365 1359 1354 1349 1346 1344 1343 1344 1345 1348 1351
1527 1523 1519 1515 1510 1505 1500 1494 1489 1483 1477 1471 1466 1461 1456 1451 1446 1441 1437 1434 1430 1426 1421 1418 1413 1407 1401 1394 1389 1384 1377 1371 1367 1361 1356 1352 1348 1345 1343 1343 1344 1346 1349
1525 1522 1518 1514 1509 1505 1499 1493 1487 1482 1476 1472 1467 1462 1456 1450 1445 1440 1436 1432 1429 1425 1421 1417 1412 1408 1402 1397 1391 1385 1380 1376 1371 1366 1361 1356 1351 1347 1344 1343 1344 1346 1349
1524 1520 1517 1513 1508 1503 1498 1493 1487 1482 1478 1474 1468 1463 1457 1451 1447 1443 1438 1433 1428 1425 1420 1416 1412 1407 1403 1398 1393 1389 1384 1379 1374 1369 1364 1359 1354 1350 1346 1345 1344 1346 1348
1522 1519 1515 1511 1507 1502 1496 1492 1488 1483 1478 1473 1469 1464 1459 1454 1448 1443 1438 1433 1428 1425 1420 1416 1412 1408 1405 1401 1397 1392 1388 1383 1379 1374 1369 1364 1358 1354 1350 1348 1347 1348 1349
1520 1517 1514 1510 1506 1501 1495 1490 1484 1481 1477 1472 1467 1463 1459 1454 1449 1444 1439 1433 1428 1423 1419 1416 1413 1410 1407 1404 1400 1396 1392 1388 1384 1379 1374 1369 1364 1359 1356 1352 1351 1350 1351
1518 1515 1513 1509 1505 1501 1496 1491 1485 1479 1473 1470 1466 1461 1458 1453 1448 1444 1439 1434 1429 1424 1420 1416 1413 1411 1408 1405 1403 1399 1396 1392 1388 1384 1379 1375 1370 1366 1362 1358 1355 1354 1353
1516 1514 1511 1508 1505 1501 1496 1492 1486 1480 1474 1469 1464 1460 1456 1452 1448 1444 1439 1434 1429 1425 1421 1417 1414 1411 1409 1407 1404 1402 1399 1396 1393 1389 1385 1381 1377 1372 1368 1365 1362 1360 1358
1513 1512 1510 1507 1504 1501 1497 1492 1487 1481 1475 1469 1464 1459 1455 1450 1446 1442 1439 1435 1431 1427 1422 1418 1415 1412 1409 1407 1405 1404 1402 1399 1396 1393 1390 1386 1383 1379 1375 1372 1368 1365 1363
1510 1509 1508 1506 1503 1500 1496 1492 1487 1482 1476 1471 1465 1460 1456 1451 1447 1443 1439 1436 1432 1428 1424 1419 1416 1412 1409 1407 1406 1405 1403 1402 1400 1397 1395 1392 1389 1385 1382 1379 1376 1373 1371
1507 1507 1506 1504 1502 1499 1496 1492 1488 1483 1478 1472 1467 1461 1457 1452 1447 1444 1440 1436 1433 1429 1425 1421 1417 1413 1410 1407 1406 1405 1404 1403 1402 1401 1399 1397 1394 1391 1389 1386 1383 1381 1378
1504 1504 1503 1502 1500 1498 1495 1492 1488 1483 1479 1473 1467 1462 1457 1452 1448 1444 1440 1436 1433 1429 1425 1421 1417 1413 1410 1407 1405 1404 1404 1404 1404 1403 1402 1401 1399 1397 1395 1393 1391 1389 1387
1500 1500 1500 1499 1498 1497 1494 1491 1488 1483 1479 1474 1468 1463 1458 1453 1448 1444 1440 1436 1433 1429 1425 1421 1417 1413 1410 1407 1405 1404 1404 1404 1405 1405 1405 1404 1403 1401 1400 1398 1397 1395 1394
1496 1497 1497 1497 1496 1495 1493 1490 1487 1483 1478 1474 1469 1464 1459 1453 1449 1444 1440 1436 1433 1429 1425 1421 1417 1413 1409 1406 1404 1402 1402 1403 1405 1406 1406 1407 1406 1405 1404 1403 1402 1401 1401
1492 1493 1493 1493 1493 1492 1491 1488 1485 1482 1478 1474 1469 1464 1459 1454 1449 1444 1440 1436 1432 1429 1425 1421 1416 1412 1408 1405 1403 1401 1401 1402 1404 1405 1407 1408 1409 1408 1408 1408 1407 1407 1407